Location: Newark
(44.3681°N, 100.3364°W)
Time: 10:00:41
(UTC+00:00)

Explorer 7 - Pass Details

Date: 25 February 2020
Orbit: 485 x 679 km, 50.3° (Epoch: 28 March)

Event Time Altitude Azimuth Distance (km) Brightness Sun altitude
Rises 18:05:51 0° 245° (WSW) 2,989 10.7 35.4°
Reaches altitude 10° 18:08:14 10° 247° (WSW) 2,058 9.9 35.5°
Maximum altitude 18:13:00 79° 334° (NNW) 647 7.6 35.7°
Drops below altitude 10° 18:17:31 10° 61° (ENE) 1,954 9.6 35.9°
Sets 18:19:44 0° 63° (ENE) 2,825 10.3 36.0°
